RH
37 37 40 43 45 50 43 43 48 39 42 34 37 41 33 30 28 29 31 31 31 33 37 41 48 50 51 48 45 44 48 54 60 68 71 76 77 70 73 77 79 85 81 84
52 51 49 50 44 39 35 32 35 37 36 30 31 37 39 36 37 33 32 33 34 35 36 38 39 38 37 34 34 35 37 42 53 64 64 67 72 76 82 86 83 85 87 95
59 63 57 55 44 41 36 32 29 33 29 31 34 42 44 43 41 39 38 39 37 37 37 36 34 32 32 32 29 28 32 41 51 57 64 74 76 82 86 85 88 87 90 97
69 63 64 38 34 30 30 27 29 29 26 26 29 36 40 42 42 44 44 42 39 38 37 36 34 32 29 28 30 35 43 48 54 59 68 77 81 84 84 83 95 95 88 88
66 63 46 35 30 38 39 28 27 25 27 28 29 31 36 39 42 43 42 41 39 37 34 33 31 30 29 32 37 42 46 50 58 65 75 79 85 85 86 85 96 92 81 78
66 64 56 35 33 38 49 45 38 35 35 36 35 40 44 44 43 42 41 38 36 35 34 34 33 34 35 37 40 44 51 59 69 76 80 83 86 90 86 80 78 79 78 76
76 66 52 38 34 38 49 37 37 38 39 40 39 38 39 40 41 39 38 36 35 35 34 36 39 41 41 43 48 54 62 70 73 76 77 79 79 77 77 76 76 70 58 51
71 62 56 35 33 38 38 33 32 36 38 39 38 38 40 38 35 34 33 33 35 38 41 43 44 46 50 54 58 62 65 66 69 72 74 73 71 69 63 55 48 40 32 28
48 50 38 28 28 33 32 33 34 35 38 38 37 35 33 33 33 33 35 38 42 45 47 50 54 55 58 62 65 67 68 71 70 67 62 56 51 46 40 34 28 24 24 23
46 39 28 26 26 27 26 28 30 30 30 31 31 32 32 33 35 39 44 46 50 53 57 61 62 63 64 66 66 66 65 61 58 56 51 43 34 31 28 25 24 25 28 30
44 33 28 26 26 28 28 28 28 29 29 30 32 34 36 39 44 49 53 56 60 64 68 69 67 64 63 63 64 62 58 53 47 41 36 32 32 31 28 29 34 35 38 42
42 24 25 23 27 28 29 29 29 30 34 36 38 40 45 50 55 60 63 67 71 74 74 69 66 65 66 64 60 54 50 45 41 38 36 35 31 27 27 26 27 30 31 37
27 26 27 29 31 33 33 34 35 37 40 43 46 50 55 61 67 70 76 78 78 77 72 69 68 66 62 58 56 52 48 44 38 34 30 26 23 21 18 18 20 21 22 23
41 35 34 34 36 39 39 40 41 44 47 50 54 61 67 69 75 81 85 84 80 76 72 69 67 63 60 58 54 50 44 36 33 30 26 24 22 19 17 16 15 15 18 20
53 45 37 40 44 45 45 45 48 51 54 59 65 71 73 78 82 88 89 84 79 74 72 69 64 60 57 56 52 43 35 34 33 30 26 21 18 18 19 20 20 19 17 17
51 49 49 51 53 54 56 57 60 63 66 71 73 75 80 86 89 90 86 80 77 75 68 64 61 58 57 51 43 37 36 34 29 24 21 19 19 20 20 20 20 22 24 26
69 69 70 71 71 71 71 75 74 74 77 76 77 84 90 93 91 82 82 82 76 68 65 63 61 58 52 49 44 37 32 26 25 22 20 21 21 20 20 22 24 24 25 28
80 81 81 77 77 82 84 84 88 82 78 83 86 90 89 85 84 82 77 71 68 68 66 64 60 54 50 42 36 31 29 26 22 22 24 23 21 21 23 24 24 25 26 30
81 78 77 76 78 81 81 83 85 89 93 91 88 89 89 85 79 75 71 71 69 66 64 60 54 46 42 38 34 30 26 24 26 27 25 23 23 24 25 25 26 28 31 33
84 82 81 82 86 89 94 97 96 94 94 94 92 86 80 78 76 72 71 69 68 65 60 52 47 45 42 37 33 30 28 30 29 27 25 24 25 26 26 27 29 32 35 39
86 89 91 93 94 94 97 97 97 94 92 86 84 80 75 75 75 74 72 70 64 59 55 52 50 45 41 37 34 31 31 29 27 27 26 26 27 27 27 30 33 37 41 44
98 98 98 98 97 97 97 96 92 88 85 82 80 81 81 79 77 74 69 65 62 60 58 54 48 44 39 32 32 32 29 29 29 29 28 29 28 28 30 33 36 40 44 48
98 97 97 97 97 97 96 92 87 85 85 86 86 85 83 79 73 70 67 67 65 63 58 51 43 39 37 35 33 31 30 30 31 31 31 30 29 30 32 34 37 40 44 46
97 97 97 97 97 94 92 91 90 91 91 90 88 84 78 74 70 68 69 69 67 61 54 48 42 39 37 36 34 31 32 34 34 33 31 30 31 33 34 36 38 40 44 47
98 98 97 97 96 95 95 95 95 95 94 89 83 77 73 72 73 74 74 69 64 58 50 44 40 40 39 35 33 34 36 35 35 32 30 30 33 34 36 39 41 43 45 47
97 97 97 97 97 97 98 98 98 96 91 86 84 84 83 83 78 75 71 66 61 55 48 43 44 40 36 36 37 38 38 38 34 31 32 33 35 37 38 38 41 44 45 48
97 97 98 98 98 98 97 96 94 95 96 95 95 90 86 81 77 73 69 62 57 52 49 46 38 37 37 39 40 41 40 37 33 32 34 36 37 36 35 37 39 42 48 55